This is the latest recevied weather packets stored in our database for station/object EB2EMZ-3. If no packets are shown the sender has not sent any weather packets the latest 10 day(s).
| Time | Temp. | Humidity | Pressure | Rain* | Wind** | Luminosity | Snow |
|---|---|---|---|---|---|---|---|
| 1777920878 | 15° C | 82% | 1010.9 hPa | 3.56 mm | - | - | - |
| 1777920578 | 15° C | 82% | 1011 hPa | 3.56 mm | - | - | - |
| 1777920278 | 15.56° C | 80% | 1011 hPa | 0.51 mm | - | - | - |
| 1777919978 | 16.67° C | 76% | 1011.1 hPa | 0.51 mm | - | - | - |
| 1777919678 | 17.22° C | 75% | 1011.1 hPa | 0 mm | - | - | - |
| 1777919378 | 18.33° C | 79% | 1011.1 hPa | 0 mm | - | - | - |
| 1777919078 | 18.33° C | 80% | 1010.9 hPa | 0 mm | - | - | - |
| 1777918778 | 18.33° C | 80% | 1011 hPa | 0 mm | - | - | - |
| 1777918478 | 18.33° C | 80% | 1010.9 hPa | 0 mm | - | - | - |
| 1777918178 | 18.33° C | 80% | 1010.7 hPa | 0 mm | - | - | - |
| 1777917878 | 18.33° C | 80% | 1010.5 hPa | 0 mm | - | - | - |
| 1777917578 | 18.33° C | 79% | 1010.8 hPa | 0 mm | - | - | - |
| 1777917278 | 18.33° C | 79% | 1010.6 hPa | 0 mm | - | - | - |
| 1777916978 | 18.33° C | 79% | 1010.5 hPa | 0 mm | - | - | - |
| 1777916678 | 18.33° C | 78% | 1010.4 hPa | 0 mm | - | - | - |
| 1777916378 | 18.33° C | 78% | 1010.5 hPa | 0 mm | - | - | - |
| 1777916078 | 18.89° C | 77% | 1010.2 hPa | 0 mm | - | - | - |
| 1777915778 | 18.89° C | 77% | 1010.3 hPa | 0 mm | - | - | - |
| 1777915478 | 18.89° C | 77% | 1010 hPa | 0 mm | - | - | - |
| 1777915178 | 18.89° C | 77% | 1009.9 hPa | 0 mm | - | - | - |
| 1777914878 | 18.89° C | 77% | 1010.2 hPa | 0 mm | - | - | - |
| 1777914578 | 18.89° C | 77% | 1010.1 hPa | 0 mm | - | - | - |
| 1777914278 | 18.89° C | 76% | 1010.1 hPa | 0 mm | - | - | - |
| 1777913978 | 18.89° C | 76% | 1010.3 hPa | 0 mm | - | - | - |
| 1777913678 | 19.44° C | 75% | 1010.5 hPa | 0 mm | - | - | - |
* Rain latest hour (hover to see other rain measurements)
** Current wind speed in m/s (hover to see current wind gust speed)